STARLINK-3085, 49156

Orbit data source: Space-Track

STARLINK-3085, 49156 is a payload satellite owned by SpaceX/Seattle (US) in LEO that was launched on Tue, 14 Sep 2021 UTC via an FALCON 9 launch vehicle from the Air Force Western Test Range (AFWTR). Payload-class satellites include a variety of spacecraft equipped with specific instruments for various scientific and technological missions. These include communications satellites like Starlink; space stations such as the ISS; scientific satellites like the Hubble; Earth observation satellites from companies like Planet Labs, Umbra, and HawkEye 360; GPS; miniature CubeSats for education and research; and military/defense satellites.

Loading next visibility...
Identifier
49156, 2021-082AC
Orbit
LEO
Last TLE update
16 hours ago
Origin
Manufacturer
SpaceX/Seattle
Mission
Operational Commercial Communications
Bus & Motor
STARLINK, Unknown motor
Mass
297 kg wet, ~275 kg dry
Launch date (UTC)
2021-09-14 (4 years ago)
Launch vehicle
FALCON 9
Launch site
Air Force Western Test Range (AFWTR)
Object type
Payload
Rocket body
Debris
Shape & HBR
Box + 1 Pan, 8.86 m
Radar Cross Section
13.562 m², Large (>1 m²)

Expand to show TLE details & history

TLE from 16 hours ago
0 STARLINK-3085
1 49156U 21082AC  25128.71640107 -.00000025  00000-0  56868-5 0  9998
2 49156  69.9988 303.3906 0003047 262.9512  97.1301 14.98327961202365
Epoch: 2025-05-08T17:11Z
Definitive object data (Epoch: 2025-05-08T17:11:37.052Z)
Latitude
0.00002°
Longitude
178.70332°
Altitude
574.75 km
Speed
7.574 km/s
True Right ascension
20h 13m 33s
True Declination
0° 00' 00"
Sunlit
Object was in daylight at TLE epoch
Visualization TLE readout
Latitude
-52.58189°
Longitude
148.8067°
Altitude
590.272 km
Speed
7.565 km/s
Apparent Right ascension
01h 24m 13s
Apparent Declination
-81° 11' 56"
Sunlit
Object is in full shadow
Visualization observer readout
Local Sidereal Time
17:06:50
Azimuth
169.807° S
Elevation
-44.452°
Doppler factor
1
Orbital elements
Apogee altitude
572.128 km
Perigee altitude
567.893 km
Semi-major axis
6,948.148 km
Eccentricity
0.0003047
Inclination
69.9988°
RAAN
303.3906°
Arg. of periapsis
262.9512°
True anomaly
97.16474°
Mean anomaly
97.1301°
Eccentric anomaly
97.14742°
Mean motion
3.74748 °/min
BSTAR
0.0000056868
Orbital period
96.06 mins
Loading maneuver chart data...
Loading SW <> Apogee altitude chart data...
Loading historical data...
Loading historical data...
Loading historical data...
Loading historical data...
Loading historical data...
Loading historical data...
Loading historical data...

STARLINK-3085 Visibility forecast

Observer location: undefined°, undefined°

Span
Click to sort rows by Start time (UTC) header in descending order
Start Az.
Max El. time (UTC)
Max El. Az.
Max El.
End time (UTC)
End Az.
7 mins2025-05-09 12:32:35.952Z176.679° S2025-05-09 12:36:35.952Z91.207° ESE32.099°2025-05-09 12:39:35.952Z41.703° NE
7 mins2025-05-09 22:35:35.952Z335.994° NNW2025-05-09 22:38:35.952Z101.466° ESE44.996°2025-05-09 22:42:35.952Z156.537° SSE
|